Location: Newark
(34.9471°N, 136.1778°E)
Time: 20:43:38
(UTC+00:00)

XW-2C - Visible Passes

Search period start: 21 February 2020 00:00
Search period end: 02 March 2020 00:00
Orbit: 507 x 529 km, 97.5° (Epoch: 21 February)

Date Brightness Start Highest point End Pass type
(mag) Time Alt. Az. Time Alt. Az. Time Alt. Az.
21 Feb ? 19:46:30 10° ENE 19:47:38 11° E 19:48:46 10° ESE visible
22 Feb ? 21:04:06 10° N 21:07:49 59° WNW 21:11:32 10° SSW visible
23 Feb ? 09:17:49 10° WSW 09:19:04 11° W 09:20:19 10° WNW visible
23 Feb ? 20:49:58 10° NNE 20:53:45 87° ESE 20:57:32 10° SSW visible
24 Feb ? 20:35:58 10° NNE 20:39:40 54° E 20:43:22 10° S visible
25 Feb ? 20:22:05 10° NNE 20:25:33 34° E 20:29:01 10° SSE visible
26 Feb ? 20:08:24 10° NE 20:11:25 22° E 20:14:26 10° SSE visible
27 Feb ? 19:55:01 10° ENE 19:57:15 15° E 19:59:29 10° SE visible
01 Mar ? 20:45:24 10° NNE 20:49:12 75° ESE 20:52:59 10° S visible
